Flag for Afghanistan Weather past 2 weeks in Jalalabad, Afghanistan

Now
63 °F

Mild.


Feels Like: 63 °F
Forecast: 36 / 64 °F
Wind: N/A

Location: Peshawar Airport

Current Time: Dec 18, 2014 at 3:02:05 PM

Latest Report: Dec 18, 2014 at 2:30 PM


Visibility: N/A

Pressure: 30.09 "Hg

Humidity: 52%

Dew point: 45 °F

Location of JalalabadLocation

Historic Weather in Jalalabad — Graph

°F

Jalalabad temperature yesterday

Maximum temperature yesterday: 63 °F (at 2:30 PM)
Minimum temperature yesterday: 39 °F (at 5:30 AM)
Average temperature yesterday: 49 °F

Past Weeks' High & Low Weather Summary

 TemperatureHumidityPressure
High79 °F (Dec 6, 2:30 PM)100% (Dec 8, 11:30 AM)30.27 "Hg (Dec 8, 11:30 AM)
Low39 °F (Dec 10, 4:30 AM)23% (Dec 11, 12:30 PM)29.80 "Hg (Dec 6, 4:30 AM)
Average54 °F60%30.08 "Hg
* Reported Dec 3 1:30 PM — Dec 18 1:30 PM, Jalalabad, Weather by CustomWeather, © 2014

Note: Actual official high and low records may vary slightly from our data, if they occured in-between our weather recording intervals... More about our weather records

Advertising

Jalalabad weather history for previous 24 hours

 ConditionsComfort  
Time TempWeatherWind HumidityBarometerVisibility
1:30 PM
Dec 18
63 °FMild.N/A52%30.09 "HgN/A
12:30 PM59 °FRefreshingly cool.N/A55%30.12 "HgN/A
11:30 AM57 °FHaze.No wind59%30.12 "Hg1 mi
10:30 AM52 °FScattered clouds.No wind62%30.18 "Hg1 mi
9:30 AM46 °FSunny.No wind71%30.21 "Hg1 mi
8:30 AM39 °FFog.No wind81%30.18 "Hg1 mi
7:30 AM39 °FFog.No wind87%30.15 "Hg1 mi
6:30 AM39 °FFog.No wind81%30.15 "Hg1 mi
5:30 AM41 °FFog.No wind87%30.18 "Hg1 mi
4:30 AM41 °FFog.No wind93%30.15 "Hg1 mi
3:30 AM41 °FFog.No wind93%30.12 "Hg1 mi
2:30 AM43 °FFog.No wind87%30.12 "Hg1 mi
1:30 AM43 °FFog.No wind87%30.12 "Hg1 mi
12:30 AM45 °FFog.No wind87%30.12 "Hg1 mi
11:30 PM
Dec 17
48 °FFog.No wind82%30.12 "Hg1 mi
10:30 PM48 °FFog.No wind82%30.12 "Hg1 mi
9:30 PM48 °FFog.No wind82%30.12 "Hg1 mi
8:30 PM48 °FFog.No wind82%30.12 "Hg1 mi
7:30 PM48 °FHaze.No wind82%30.12 "Hg1 mi
6:30 PM50 °FHaze.No wind76%30.09 "Hg1 mi
5:30 PM52 °FHaze.No wind72%30.09 "Hg1 mi
4:30 PM57 °FScattered clouds.No wind67%30.09 "Hg1 mi
3:30 PM61 °FScattered clouds.No wind59%30.09 "Hg1 mi
Weather by CustomWeather, © 2014

See weather overviewHow to use our weather pages